Overview Statistics Trail Chart Weather Telemetry Raw packets
 

This is the latest recevied weather packets stored in our database for station/object KC5TIL. If no packets are shown the sender has not sent any weather packets the latest 10 day(s).

<< 1 2 3 4 5 >>
Time Temp. Humidity Pressure Rain* Wind** Luminosity Snow
1788614978 28.89° C 73% 1015.3 hPa 0 mm - 115 W/m² -
1788614673 28.33° C 75% 1015.2 hPa 0 mm - 67 W/m² -
1788614368 28.33° C 75% 1015.3 hPa 0 mm - 58 W/m² -
1788614078 27.78° C 76% 1015.1 hPa 0 mm - 54 W/m² -
1788613763 27.22° C 77% 1015 hPa 0 mm - 49 W/m² -
1788613458 26.67° C 80% 1014.9 hPa 0 mm - 38 W/m² -
1788613158 26.67° C 79% 1015.1 hPa 0 mm - 29 W/m² -
1788612853 26.67° C 80% 1014.9 hPa 0 mm - 31 W/m² -
1788612548 26.11° C 81% 1014.9 hPa 0 mm - 28 W/m² -
1788612245 26.11° C 82% 1014.7 hPa 0 mm - 21 W/m² -
1788611945 26.11° C 82% 1014.6 hPa 0 mm - 22 W/m² -
1788611641 25.56° C 83% 1014.8 hPa 0 mm - 18 W/m² -
1788611336 25.56° C 84% 1014.6 hPa 0 mm - 15 W/m² -
1788611035 25.56° C 84% 1014.8 hPa 0 mm - 11 W/m² -
1788610731 25.56° C 84% 1014.7 hPa 0 mm - 7 W/m² -
1788610427 25.56° C 84% 1014.6 hPa 0 mm - 4 W/m² -
1788610126 25.56° C 84% 1014.9 hPa 0 mm - 2 W/m² -
1788609820 25.56° C 84% 1014.7 hPa 0 mm - 0 W/m² -
1788609516 25.56° C 84% 1014.8 hPa 0 mm - 0 W/m² -
1788609215 25.56° C 84% 1014.8 hPa 0 mm - 0 W/m² -
1788608915 25.56° C 83% 1014.7 hPa 0 mm - 0 W/m² -
1788608614 25.56° C 83% 1014.7 hPa 0 mm - 0 W/m² -
1788608308 25.56° C 83% 1014.7 hPa 0 mm - 0 W/m² -
1788608004 25.56° C 83% 1014.6 hPa 0 mm - 0 W/m² -
1788607699 25.56° C 83% 1014.7 hPa 0 mm - 0 W/m² -

* Rain latest hour (hover to see other rain measurements)
** Current wind speed in m/s (hover to see current wind gust speed)